This is the latest recevied weather packets stored in our database for station/object SQ5SUI-3. If no packets are shown the sender has not sent any weather packets the latest 10 day(s).
| Time | Temp. | Humidity | Pressure | Rain* | Wind** | Luminosity | Snow |
|---|---|---|---|---|---|---|---|
| 1777825859 | 25.56° C | 14% | 1013.4 hPa | 0 mm | - | - | - |
| 1777824059 | 27.22° C | 10% | 1013 hPa | 0 mm | - | - | - |
| 1777822259 | 27.22° C | 10% | 1012.6 hPa | 0 mm | - | - | - |
| 1777820458 | 27.22° C | 10% | 1012.2 hPa | 0 mm | - | - | - |
| 1777818659 | 27.78° C | 12% | 1011.8 hPa | 0 mm | - | - | - |
| 1777816859 | 27.22° C | 10% | 1011.4 hPa | 0 mm | - | - | - |
| 1777815059 | 27.78° C | 10% | 1010.5 hPa | 0 mm | - | - | - |
| 1777813259 | 26.67° C | 11% | 1010.1 hPa | 0 mm | - | - | - |
| 1777811459 | 26.67° C | 12% | 1009.5 hPa | 0 mm | - | - | - |
| 1777809659 | 26.67° C | 14% | 1008.8 hPa | 0 mm | - | - | - |
| 1777807859 | 25.56° C | 16% | 1008.6 hPa | 0 mm | - | - | - |
| 1777806060 | 25° C | 18% | 1008.2 hPa | 0 mm | - | - | - |
| 1777804259 | 24.44° C | 20% | 1007.9 hPa | 0 mm | - | - | - |
| 1777802459 | 24.44° C | 19% | 1007.3 hPa | 0 mm | - | - | - |
| 1777800659 | 23.89° C | 21% | 1007.1 hPa | 0 mm | - | - | - |
| 1777798859 | 23.89° C | 23% | 1007 hPa | 0 mm | - | - | - |
| 1777797060 | 23.33° C | 26% | 1006.6 hPa | 0 mm | - | - | - |
| 1777795260 | 22.22° C | 26% | 1006.7 hPa | 0 mm | - | - | - |
| 1777793460 | 21.67° C | 29% | 1006.7 hPa | 0 mm | - | - | - |
| 1777791659 | 20° C | 36% | 1006.5 hPa | 0 mm | - | - | - |
| 1777789860 | 18.33° C | 42% | 1006.6 hPa | 0 mm | - | - | - |
| 1777788060 | 16.67° C | 44% | 1006.5 hPa | 0 mm | - | - | - |
| 1777786258 | 15° C | 54% | 1006.2 hPa | 0 mm | - | - | - |
| 1777784458 | 12.78° C | 61% | 1006.1 hPa | 0 mm | - | - | - |
| 1777782659 | 10.56° C | 66% | 1006.1 hPa | 0 mm | - | - | - |
* Rain latest hour (hover to see other rain measurements)
** Current wind speed in m/s (hover to see current wind gust speed)